[Iaude] MPEC G53: 2024 GM [a=2.19,e=0.57,i=10.6,H=23.0]

mpec at cfa.harvard.edu mpec at cfa.harvard.edu
Fri Apr 5 08:51:04 EDT 2024


M.P.E.C. 2024-G53                                 Issued 2024 April 5, 12:49 UT

     The Minor Planet Electronic Circulars contain information on unusual
         minor planets, routine data on comets and natural satellites,
         and occasional editorial announcements.  They are published
    on behalf of Division F of the International Astronomical Union by the
          Minor Planet Center, Smithsonian Astrophysical Observatory,
                          Cambridge, MA 02138, U.S.A.
			  
             Prepared using the Tamkin Foundation Computer Network

                              MPC at CFA.HARVARD.EDU
            URL https://www.minorplanetcenter.net/    ISSN 1523-6714

                                    2024 GM                                     


Observations:
     K24G00M* C2024 04 03.25790008 20 09.978-08 54 21.88         20.66wXEG053F52
     K24G00M  C2024 04 03.28671508 20 03.649-08 52 46.27         21.23wXEG053F52
     K24G00M  C2024 04 03.30111108 20 00.503-08 51 58.67         20.73wXEG053F52
     K24G00M 7C2024 04 03.88024708 18 07.728-08 19 27.94         20.2 GVEG053Z84
     K24G00M 7C2024 04 03.88467308 18 06.716-08 19 13.05               VEG053Z84
     K24G00M |C2024 04 04.02875008 17 39.030-08 09 25.80         20.3 GVEG053807
     K24G00M |C2024 04 04.03323708 17 38.030-08 09 10.00         20.1 GVEG053807
     K24G00M |C2024 04 04.03758008 17 37.020-08 08 54.80         20.5 GVEG053807
     K24G00M KC2024 04 04.13512 08 17 16.80 -08 04 29.1                VEG053734
     K24G00M KC2024 04 04.13962608 17 16.735-08 04 08.29         20.51GVEG053I52
     K24G00M KC2024 04 04.14129608 17 16.357-08 04 02.03         20.46GVEG053I52
     K24G00M KC2024 04 04.14296708 17 15.979-08 03 56.48         20.57GVEG053I52
     K24G00M KC2024 04 04.14463808 17 15.616-08 03 50.36         20.70GVEG053I52
     K24G00M KC2024 04 04.14890 08 17 13.69 -08 03 37.5          19.6 RVEG053734
     K24G00M  C2024 04 04.29215608 16 44.973-07 54 46.11         20.44GVEG053F51
     K24G00M  C2024 04 04.29297208 16 44.791-07 54 43.28         20.71GVEG053F51
     K24G00M KC2024 04 04.38051208 16 27.293-07 48 03.64         20.6 GVEG053474
     K24G00M KC2024 04 04.38426208 16 26.455-07 47 49.78         20.7 GVEG053474
     K24G00M KC2024 04 04.38801208 16 25.586-07 47 35.99         20.6 GVEG053474
     K24G00M KC2024 04 04.39176508 16 24.734-07 47 22.31         20.3 GVEG053474
     K24G00M KC2024 04 05.14526 08 13 46.48 -07 01 16.2          20.6 RVEG053691
     K24G00M KC2024 04 05.14975 08 13 45.36 -07 00 58.4          19.8 RVEG053691
     K24G00M KC2024 04 05.15424 08 13 44.26 -07 00 40.2          19.9 RVEG053691

Observer details:
474 Mount John Observatory, Lake Tekapo.  Observers A. C. Gilmore, P. M.
    Kilmartin.  Measurer P. M. Kilmartin.  0.6-m f/6.3 Reflector + CCD.
691 Steward Observatory, Kitt Peak-Spacewatch.  Observer T. H. Bressi.  0.9-m
    f/3 reflector + CCD.
734 Farpoint Observatory, Eskridge.  Observers G. Hug, D. Cromer, D. Goodin,
    R. Valentine.  Measurer P. Lessig.  0.7m reflector + CCD.
807 Cerro Tololo Observatory, La Serena.  Observers T. Linder, R. Holmes.
    0.61-m f/6.8 Ritchey-Chretien + CCD.
F51 Pan-STARRS 1, Haleakala.  Observers J. Herman, T. Lowe, P. Minguez, A.
    Schultz, I. Smith.  Measurers K. Chambers, T. de Boer, J. Fairlamb, H.
    Gao, M. Huber, C.-C. Lin, E. Magnier, Y. Ramanjooloo, R. Wainscoat, R.
    Weryk.  1.8-m Ritchey-Chretien + CCD.
F52 Pan-STARRS 2, Haleakala.  Observers J. Herman, T. Lowe, P. Minguez, A.
    Schultz, I. Smith.  Measurers K. Chambers, T. de Boer, J. Fairlamb, H.
    Gao, M. Huber, C.-C. Lin, E. Magnier, Y. Ramanjooloo, R. Wainscoat, R.
    Weryk.  1.8-m Ritchey-Chretien + CCD.
I52 Steward Observatory, Mt. Lemmon Station.  Observer R. A. Kowalski.
    Measurers T. Beuden, V. F. Carvajal, D. Fay, J. B. Fazekas, D. C. Fuls, A.
    R. Gibbs, A. D. Grauer, H. Groeller, J. K. Hogan, R. A. Kowalski, S. M.
    Larson, G. J. Leonard, D. Rankin, R. L. Seaman, F. C. Shelly, K. W.
    Wierzchos.  1.0-m prime focus + CCD.
Z84 Calar Alto-Schmidt.  Observers F. Ocana, R. Kresken, M. Micheli, L.
    Conversi.  Measurers F. Ocana, M. Micheli.  0.8-m f/3 Schmidt + CCD.

Orbital elements:
2024 GM                                                  Earth MOID = 0.0111 AU
Epoch 2024 Mar. 31.0 TT = JDT 2460400.5                 Veres                   
M 348.43167              (2000.0)            P               Q                  
n   0.30413822     Peri.   26.30426     -0.62916283     +0.77336369             
a   2.1898888      Node   204.94380     -0.74171745     -0.62731365             
e   0.5659946      Incl.   10.63952     -0.23239912     -0.09157609             
P   3.24           H   23.06          G   0.15           U   8                  
Residuals in seconds of arc
240403 F52  0.1-  0.2-    240404 734  0.4-  0.8+    240404 474  0.1-  0.1-
240403 F52  0.2-  0.1+    240404 I52  0.2-  0.1-    240404 474  0.1+  0.0
240403 F52  0.1-  0.2-    240404 I52  0.2-  0.2+    240404 474  0.1-  0.0
240403 Z84  0.3+  0.1+    240404 I52  0.1-  0.2-    240404 474  0.1-  0.1-
240403 Z84  0.2-  0.6-    240404 I52  0.1+  0.1-    240405 691  0.2+  0.2-
240404 807  0.0   0.2+    240404 734 (0.6-  2.9+)   240405 691  0.2-  0.1-
240404 807  0.3+  0.1+    240404 F51  0.1+  0.0     240405 691  0.2-  0.3+
240404 807  0.0   0.1-    240404 F51  0.3+  0.2-

Ephemeris:
2024 GM                  a,e,i = 2.19, 0.57, 11                  q = 0.9504
Date    TT    R. A. (2000) Decl.     Delta      r    Elong.  Phase     V
2024 03 06    09 20 36.9 -18 42 00   0.2920  1.2408   144.2    27.9    22.1
...
2024 03 21    08 52 31.7 -16 14 32   0.1969  1.1343   130.6    41.8    21.4
...
2024 03 29    08 34 47.2 -12 45 28   0.1508  1.0835   120.9    52.3    21.1
...
2024 04 04    08 17 45.5 -08 11 38   0.1176  1.0494   111.7    62.3    20.7
2024 04 05    08 14 18.7 -07 09 57   0.1122  1.0440   110.0    64.2    20.7
2024 04 06    08 10 36.6 -06 02 00   0.1068  1.0388   108.1    66.3    20.6
...
2024 04 12    07 39 41.8 +04 00 19   0.07640 1.0102    93.7    82.0    20.4
...
2024 04 20    05 50 33.8 +33 41 35   0.04910 0.9799    58.5   119.0    21.2
...
2024 05 05    23 22 09.0 +44 10 43   0.09689 0.9513    51.5   123.9    23.0

M. P. C. Staff               (C) Copyright 2024 MPC           M.P.E.C. 2024-G53





More information about the Iaude mailing list